Location: Sevilla
(37.3933°N, 5.9839°W)
Time: 12:47:56
(UTC+02:00)

Transit 2A Rocket - Visible Passes

Search period start: 21 June 2024 00:00
Search period end: 01 July 2024 00:00
Orbit: 583 x 910 km, 66.7° (Epoch: 21 June)

Date Brightness Start Highest point End Pass type
(mag) Time Alt. Az. Time Alt. Az. Time Alt. Az.
21 Jun 8.1 00:33:12 10° WNW 00:35:44 13° NW 00:38:22 10° NNW visible
21 Jun 8.9 05:53:01 10° NNE 05:53:59 10° NE 05:54:55 10° NE visible
21 Jun 7.6 23:47:14 10° W 23:51:10 22° NW 23:55:22 10° N visible
22 Jun 6.8 23:02:08 10° WSW 23:06:45 36° NW 23:11:49 10° NNE visible
23 Jun 8.3 06:04:46 10° N 06:09:10 20° NE 06:13:33 10° E visible
23 Jun 5.6 22:17:35 10° SW 22:22:31 64° WNW 22:28:00 10° NNE visible
24 Jun 8.6 00:05:00 10° NW 00:06:17 11° NW 00:07:36 10° NNW visible
24 Jun 8.7 05:21:52 10° NNE 05:24:34 13° NE 05:27:15 10° ENE visible
24 Jun 8.2 23:18:11 10° W 23:21:38 17° NW 23:25:17 10° N visible
25 Jun 7.0 06:18:19 10° NNW 06:24:00 40° NE 06:29:37 10° SE visible
25 Jun 7.4 22:32:44 10° WSW 22:37:08 28° NW 22:41:55 10° N visible
26 Jun 7.8 05:34:42 10° N 05:39:37 25° NE 05:44:30 10° ESE visible
27 Jun 8.4 04:51:27 10° N 04:55:06 16° NE 04:58:43 10° E visible
27 Jun 5.5 06:32:23 10° NNW 06:38:31 84° ENE 06:44:30 10° SSE visible
27 Jun 8.4 22:49:19 10° WNW 22:52:07 14° NW 22:55:02 10° N visible
28 Jun 8.7 04:10:04 10° NE 04:10:23 10° NE 04:10:41 10° NE visible
28 Jun 6.4 05:48:26 10° NNW 05:54:22 50° ENE 06:00:09 10° SE visible
29 Jun 7.3 05:04:42 10° N 05:10:03 31° NE 05:15:19 10° ESE visible
30 Jun 7.9 04:21:15 10° N 04:25:35 20° NE 04:29:52 10° E visible
30 Jun 5.3 06:02:40 10° NNW 06:08:47 77° WSW 06:14:41 10° SSE visible
30 Jun 8.6 22:20:53 10° WNW 22:22:38 11° NW 22:24:26 10° NNW visible
